Wind_Speed
33 34 34 34 35 35 35 36 37 37 39 40 40 41 42 42 43 43 43 42 42 43 43 42 42 43 44 45 45 45 45 45 44 44 45 45 45 45 45 45 45 46 47
34 33 34 35 35 36 36 36 37 38 38 39 40 41 42 43 43 43 44 44 44 44 44 44 44 45 45 45 46 46 46 46 46 46 46 46 46 47 47 47 48 48 49
35 35 35 35 36 37 37 38 38 39 39 40 41 41 41 42 44 43 44 45 46 45 45 46 47 46 46 47 47 48 48 48 48 48 48 48 48 48 48 49 49 49 50
35 35 36 36 36 36 37 38 38 38 39 40 41 42 42 42 43 44 45 46 47 47 48 48 48 48 47 48 48 48 49 49 50 50 50 50 50 50 49 50 50 50 50
36 36 36 36 36 36 37 38 39 39 39 40 42 42 43 43 44 45 45 46 47 48 49 49 48 48 48 48 48 49 49 49 50 50 50 50 51 51 51 50 50 50 50
36 36 36 36 37 37 37 38 38 39 40 41 41 43 44 44 44 45 45 46 47 48 48 48 48 48 48 48 48 48 49 49 49 49 50 50 50 50 50 51 51 50 50
36 36 36 37 37 37 38 38 38 39 40 41 41 42 43 44 45 46 46 46 47 47 49 49 49 48 49 49 48 49 49 48 48 48 48 49 49 50 49 50 50 50 49
36 36 36 36 36 37 38 38 39 39 39 40 40 41 42 43 44 44 46 46 46 47 47 47 48 49 49 49 49 50 50 49 48 48 48 48 48 48 49 49 50 49 48
34 34 34 35 35 36 36 37 38 38 39 39 40 40 41 42 43 43 44 45 46 46 47 47 48 49 49 50 51 50 50 49 49 48 48 48 48 48 48 48 48 48 47
33 34 34 34 35 35 36 37 37 38 38 39 40 41 41 41 41 41 42 43 44 45 46 47 48 49 50 50 50 49 48 48 48 48 48 48 48 47 46 46 46 46 46
33 33 33 34 34 35 35 36 36 37 37 38 39 40 40 40 41 41 42 43 43 44 45 46 47 48 48 48 47 47 46 46 46 46 46 47 46 46 45 46 46 46 46
33 33 33 33 34 34 34 34 35 36 37 38 39 39 39 39 40 41 41 42 43 43 44 45 45 46 46 46 46 46 46 46 45 45 45 45 45 45 45 45 45 45 45
33 34 34 34 34 34 34 34 34 35 36 37 37 38 38 38 38 39 40 41 42 43 43 44 44 44 44 44 44 44 45 45 45 44 44 44 44 44 43 44 44 44 44
34 34 34 34 34 34 34 35 35 36 37 37 37 37 37 38 38 39 40 40 41 41 41 42 42 42 43 43 43 43 43 44 44 43 43 43 43 43 42 43 43 43 42
34 34 34 34 35 35 35 35 36 36 37 37 36 37 38 38 39 39 39 39 40 40 40 41 41 42 42 42 42 43 43 43 42 42 42 42 42 41 41 42 41 41 41
34 34 34 34 34 35 35 36 36 37 37 37 36 36 36 36 37 37 37 37 38 38 39 39 40 40 40 40 40 41 41 41 41 41 41 41 41 40 40 40 41 41 41
34 34 34 33 33 34 34 35 36 36 36 36 35 35 35 35 35 36 36 36 35 36 36 36 37 37 38 38 39 39 39 39 39 40 40 41 40 39 39 39 39 40 40
33 33 34 34 34 34 34 34 35 35 35 34 34 33 33 33 33 34 35 35 35 35 35 35 35 35 35 36 36 37 37 38 38 38 38 39 39 39 39 39 38 38 39
33 33 34 35 34 34 33 34 34 34 34 32 32 32 32 32 33 33 33 33 33 34 34 34 34 34 34 34 35 35 36 36 36 36 37 37 38 38 38 38 38 37 37
31 31 31 31 32 31 32 32 32 32 32 31 31 31 31 31 31 32 32 32 32 33 33 33 33 33 32 33 33 34 35 35 34 34 34 34 35 35 35 35 35 35 34
29 29 28 29 29 29 29 30 30 30 29 29 29 28 28 29 29 30 30 30 31 31 31 30 30 31 31 31 32 32 32 32 31 31 31 31 32 33 32 32 32 31 31
28 27 27 27 27 27 27 27 27 26 26 26 26 26 26 27 27 27 28 29 29 29 29 29 29 29 29 29 29 29 28 28 28 28 28 28 29 30 29 29 29 28 29
27 27 27 26 26 26 25 24 24 24 24 24 25 25 26 26 26 26 27 27 27 27 27 28 28 27 27 26 26 25 25 25 26 26 26 27 27 27 27 27 26 26 27
26 26 26 25 24 24 23 22 22 23 23 24 24 24 24 24 25 25 25 24 24 25 26 26 25 25 25 25 24 24 24 24 24 24 25 25 25 25 25 25 24 24 25
25 24 24 23 23 23 22 21 21 21 22 23 23 23 23 23 24 24 23 23 23 23 23 23 23 23 22 23 23 23 22 22 23 22 23 23 24 24 23 23 23 24 24
24 24 23 22 22 22 21 21 21 21 21 21 21 22 22 22 22 21 21 21 21 21 21 21 21 20 20 20 20 20 21 21 20 20 20 21 21 22 22 22 22 22 22
Wind_Direction
263 262 261 263 263 264 263 263 263 261 259 258 257 257 256 257 257 257 257 258 258 260 262 262 262 263 264 265 265 266 266 267 268 268 269 268 268 269 270 271 271 271 271
263 262 263 265 264 264 265 264 263 262 261 259 258 258 257 257 257 258 258 258 260 261 263 263 264 264 265 265 265 265 266 267 268 268 269 269 268 269 270 271 271 272 272
263 262 264 266 265 265 266 265 263 263 262 261 259 258 258 259 258 259 260 259 260 262 263 265 265 265 265 265 265 266 266 267 268 268 269 269 269 269 270 271 271 272 272
265 264 265 266 267 267 267 266 264 263 263 262 261 260 260 260 260 260 260 261 261 262 264 265 266 266 266 266 267 268 267 267 267 269 270 270 271 271 270 271 271 271 271
267 265 266 267 267 267 267 267 264 263 263 263 261 261 261 262 261 261 261 262 262 263 263 264 264 265 265 266 267 267 268 267 268 269 270 271 271 272 271 271 271 270 271
268 268 268 268 268 268 269 268 265 264 263 262 261 261 262 262 262 261 262 263 263 264 264 264 264 265 266 268 268 268 269 269 269 270 271 271 272 272 272 271 270 270 270
270 269 269 270 269 269 269 269 268 266 264 263 262 262 262 263 263 262 262 264 265 265 266 265 265 266 267 268 269 268 269 270 271 271 270 271 271 271 272 272 271 270 270
273 271 270 271 271 271 270 270 269 268 266 265 264 264 264 263 263 263 263 265 265 265 265 265 266 266 267 268 269 269 269 270 270 269 270 271 272 272 273 274 273 270 270
275 273 272 272 272 272 271 271 269 268 267 266 266 266 265 265 265 265 265 265 266 266 266 266 267 267 268 268 268 269 269 269 269 269 270 271 272 273 274 274 273 271 270
277 275 273 272 272 272 272 272 270 269 267 266 267 266 266 266 267 266 266 266 267 267 267 268 268 268 268 269 269 270 269 269 269 270 270 270 272 272 273 274 274 273 273
280 277 275 273 272 272 272 271 271 270 269 268 268 267 266 266 266 266 266 266 267 267 267 268 269 269 269 269 269 269 269 269 269 269 270 270 271 271 273 274 274 274 274
282 280 278 276 275 273 272 272 272 271 270 269 268 268 268 267 267 267 267 267 267 268 268 268 269 269 269 269 268 268 269 268 268 269 269 270 270 271 272 274 274 275 276
281 280 278 277 276 275 274 273 272 271 270 270 270 269 268 267 267 267 267 268 268 269 268 269 269 269 269 268 267 268 268 267 268 268 268 269 270 271 273 274 274 275 276
280 279 278 276 276 276 274 273 271 271 271 271 271 268 267 267 267 268 268 268 269 269 270 269 269 269 269 268 267 268 268 268 267 268 268 269 270 271 272 274 274 275 276
280 279 278 276 275 275 274 273 272 272 272 272 271 270 269 268 267 268 268 269 270 270 269 270 270 270 270 269 268 268 268 268 267 268 269 269 270 271 272 273 274 275 276
280 279 278 276 276 276 275 274 273 272 272 272 270 269 269 268 269 269 270 271 271 270 271 271 271 271 270 270 269 268 267 268 268 268 269 269 270 271 272 273 274 275 275
281 281 280 278 278 278 276 274 274 273 272 272 270 269 269 269 269 269 270 271 272 272 272 272 273 272 271 271 270 269 268 268 268 268 269 270 270 271 273 274 274 275 275
282 280 279 279 279 278 276 274 274 274 273 273 271 270 270 269 270 270 270 271 271 271 272 273 274 273 273 273 271 270 269 268 269 269 269 270 269 270 272 273 274 274 274
284 282 281 280 279 278 277 276 275 275 273 273 272 271 272 272 272 273 273 273 273 272 273 274 274 274 274 274 273 272 270 270 269 269 269 270 270 271 272 273 273 273 274
285 285 283 281 280 279 278 277 277 275 273 272 272 272 272 272 273 274 274 274 273 273 273 274 274 274 274 274 274 273 272 271 270 269 269 270 271 270 271 273 273 274 273
288 287 285 284 283 281 280 279 278 275 272 271 271 272 272 273 274 275 275 274 274 274 274 274 274 275 275 275 275 274 273 271 271 270 269 269 270 271 272 274 274 273 272
288 287 286 285 284 282 280 279 277 275 272 272 272 274 274 274 275 277 276 275 275 275 274 274 275 276 276 275 273 272 272 272 272 271 269 270 271 271 272 273 272 271 270
289 288 286 285 283 282 280 278 276 274 272 272 272 274 275 275 276 277 277 276 275 276 277 276 276 276 276 275 273 272 271 271 272 271 270 269 270 271 272 272 271 271 271
289 289 287 285 282 281 280 279 276 274 272 272 273 274 276 278 278 278 278 277 276 278 278 278 277 276 275 274 272 270 271 272 273 271 270 270 270 271 271 271 272 273 273
289 289 287 285 282 281 281 280 277 276 275 274 274 275 276 278 279 279 278 277 278 278 279 279 279 276 275 275 273 272 271 273 273 272 272 270 269 269 269 271 273 273 274
288 287 286 284 283 281 280 278 277 276 276 276 276 277 279 280 280 279 278 278 279 280 280 280 280 279 277 275 273 271 271 272 274 273 272 271 268 267 270 272 273 273 275
Height
5700 5700 5700 5701 5701 5701 5701 5701 5702 5703 5703 5705 5706 5708 5710 5712 5714 5716 5718 5720 5722 5723 5724 5726 5727 5728 5729 5730 5731 5732 5733 5734 5734 5735 5735 5736 5736 5736 5736 5737 5737 5737 5737
5691 5691 5691 5692 5692 5692 5692 5692 5692 5693 5694 5695 5696 5698 5700 5702 5704 5706 5708 5709 5711 5713 5714 5715 5716 5717 5718 5719 5720 5721 5722 5722 5723 5723 5724 5725 5726 5725 5725 5725 5725 5725 5725
5682 5683 5683 5683 5683 5683 5683 5683 5683 5684 5684 5685 5686 5688 5690 5692 5694 5696 5697 5699 5700 5701 5703 5704 5705 5706 5707 5708 5708 5709 5710 5710 5711 5711 5712 5712 5714 5714 5714 5713 5713 5712 5712
5673 5674 5674 5674 5674 5674 5674 5674 5674 5674 5675 5675 5677 5678 5680 5682 5684 5685 5686 5687 5689 5690 5691 5693 5694 5694 5695 5696 5696 5697 5697 5698 5699 5699 5699 5699 5700 5701 5702 5702 5700 5700 5699
5664 5664 5664 5664 5665 5665 5664 5664 5664 5664 5664 5665 5666 5667 5669 5671 5673 5674 5675 5676 5677 5678 5679 5680 5681 5682 5683 5684 5684 5684 5684 5685 5686 5686 5686 5686 5686 5686 5687 5689 5688 5687 5686
5654 5654 5654 5654 5655 5655 5654 5654 5654 5654 5654 5655 5656 5657 5658 5660 5661 5662 5663 5664 5665 5666 5667 5668 5669 5670 5670 5671 5671 5672 5672 5672 5673 5673 5673 5673 5673 5673 5673 5674 5675 5674 5674
5645 5644 5644 5645 5645 5645 5644 5643 5643 5644 5644 5644 5645 5646 5647 5648 5650 5651 5652 5653 5653 5654 5655 5656 5657 5657 5658 5658 5659 5659 5660 5660 5660 5660 5660 5660 5660 5660 5660 5660 5660 5661 5661
5635 5634 5634 5635 5634 5634 5634 5633 5633 5633 5633 5634 5634 5635 5636 5637 5638 5639 5640 5640 5641 5642 5642 5643 5644 5645 5645 5646 5646 5646 5647 5647 5647 5647 5648 5648 5647 5647 5647 5647 5647 5647 5648
5625 5625 5625 5624 5624 5624 5623 5623 5623 5623 5623 5623 5623 5624 5625 5625 5626 5627 5627 5628 5629 5630 5630 5631 5632 5632 5632 5633 5633 5633 5634 5634 5634 5634 5634 5635 5635 5634 5634 5634 5633 5634 5634
5616 5616 5615 5615 5615 5614 5613 5613 5612 5612 5612 5613 5613 5613 5614 5614 5615 5615 5616 5616 5617 5617 5618 5618 5619 5619 5619 5620 5620 5620 5620 5621 5621 5621 5622 5622 5622 5622 5622 5621 5621 5621 5621
5608 5607 5606 5606 5605 5605 5604 5603 5603 5602 5602 5602 5602 5602 5603 5603 5603 5604 5604 5605 5605 5606 5606 5606 5606 5606 5606 5607 5607 5607 5607 5608 5608 5609 5609 5609 5609 5609 5610 5609 5609 5608 5608
5599 5598 5597 5596 5596 5595 5595 5594 5593 5593 5592 5592 5592 5592 5592 5592 5592 5593 5593 5593 5594 5594 5594 5594 5594 5593 5594 5594 5594 5595 5595 5595 5596 5596 5596 5597 5597 5597 5597 5597 5597 5596 5596
5590 5589 5588 5587 5586 5586 5585 5585 5584 5583 5583 5582 5582 5582 5581 5582 5582 5582 5582 5582 5582 5582 5582 5581 5581 5581 5581 5581 5582 5582 5582 5583 5583 5584 5584 5585 5585 5585 5585 5585 5585 5584 5584
5581 5580 5579 5578 5577 5576 5576 5575 5575 5574 5573 5572 5572 5571 5571 5571 5571 5571 5571 5570 5570 5570 5570 5569 5569 5569 5569 5569 5570 5570 5570 5571 5571 5571 5572 5572 5573 5573 5573 5573 5573 5572 5572
5572 5571 5570 5569 5568 5567 5566 5566 5565 5564 5563 5563 5562 5561 5561 5561 5560 5560 5560 5559 5559 5559 5558 5558 5558 5558 5558 5558 5558 5558 5559 5559 5559 5560 5560 5560 5561 5561 5561 5561 5561 5561 5560
5563 5562 5560 5559 5558 5558 5557 5556 5555 5554 5553 5552 5552 5551 5551 5550 5550 5550 5549 5549 5549 5548 5548 5547 5547 5547 5547 5547 5547 5547 5547 5547 5547 5548 5548 5549 5549 5550 5550 5550 5549 5549 5549
5554 5552 5551 5549 5549 5548 5547 5546 5545 5544 5543 5542 5541 5541 5541 5541 5540 5540 5539 5539 5538 5538 5537 5537 5537 5536 5536 5536 5536 5535 5535 5536 5536 5536 5537 5537 5538 5538 5538 5538 5538 5537 5537
5544 5543 5541 5540 5539 5537 5536 5535 5534 5534 5533 5532 5532 5531 5531 5531 5530 5530 5530 5529 5529 5528 5528 5527 5527 5527 5526 5526 5525 5525 5524 5525 5525 5525 5526 5526 5527 5527 5527 5527 5527 5527 5526
5535 5533 5531 5530 5528 5527 5526 5525 5524 5524 5523 5523 5523 5522 5522 5521 5521 5521 5520 5519 5519 5519 5518 5518 5517 5517 5517 5516 5515 5514 5514 5514 5515 5515 5515 5515 5516 5516 5516 5517 5517 5517 5516
5525 5524 5522 5520 5519 5517 5516 5515 5514 5514 5514 5514 5513 5513 5513 5512 5512 5511 5511 5510 5510 5509 5509 5508 5508 5508 5507 5506 5506 5505 5504 5505 5505 5505 5505 5505 5506 5506 5505 5506 5506 5506 5506
5517 5515 5513 5511 5510 5509 5507 5506 5506 5505 5505 5504 5504 5504 5504 5504 5503 5503 5502 5501 5501 5500 5500 5499 5499 5498 5498 5497 5496 5495 5495 5496 5496 5496 5496 5496 5496 5496 5496 5497 5497 5497 5497
5509 5507 5505 5503 5502 5500 5499 5498 5497 5497 5496 5496 5496 5496 5496 5496 5495 5494 5494 5493 5492 5492 5491 5491 5490 5490 5489 5488 5488 5487 5487 5487 5487 5488 5488 5488 5488 5488 5488 5488 5488 5488 5488
5502 5499 5497 5496 5494 5493 5491 5491 5490 5489 5489 5489 5489 5489 5489 5488 5488 5487 5486 5485 5484 5484 5483 5482 5482 5481 5480 5480 5479 5479 5479 5479 5480 5480 5480 5480 5480 5480 5480 5480 5480 5480 5481
5494 5492 5490 5488 5487 5486 5484 5484 5483 5482 5482 5482 5482 5482 5481 5481 5480 5479 5478 5478 5477 5476 5475 5474 5474 5473 5473 5472 5472 5472 5472 5472 5472 5473 5473 5473 5473 5473 5473 5473 5473 5473 5473
5487 5485 5483 5482 5480 5479 5478 5477 5477 5476 5476 5476 5475 5475 5474 5474 5473 5472 5471 5470 5470 5469 5468 5467 5466 5466 5466 5465 5466 5465 5466 5466 5467 5467 5467 5467 5467 5466 5466 5466 5466 5466 5467
5481 5479 5477 5476 5474 5473 5472 5472 5471 5470 5470 5469 5469 5468 5468 5467 5466 5465 5465 5464 5463 5463 5461 5461 5460 5460 5459 5459 5459 5459 5460 5460 5460 5461 5461 5460 5461 5461 5460 5460 5460 5460 5460